This demonstration page uses our WeatherBlox Daily Observations layout. Learn more.

Left ArrowRight Arrow

41.86663, -103.66717

Hourly Observations for June 24, 2022

Temp ( °F °C ) Dew Point ( °F °C ) Humidity (%) Winds ( mph kmh ) Pressure ( in mb ) Visibility ( mi km ) Precip ( " mm )
12:53 am 00:53 Clear 68 20 41 5 38 38 ENE 3 6 29.75 1008 10 16 0.00 0.00
1:53 am 01:53 Clear 65 18.3 42 5.6 43 43 WNW 8 13 29.74 1007 10 16 0.00 0.00
2:53 am 02:53 Clear 66 18.9 44 6.7 45 45 ESE 5 7 29.74 1007 10 16 0.00 0.00
3:53 am 03:53 Clear 63 17.2 44 6.7 50 50 NW 3 6 29.75 1008 10 16 0.00 0.00
4:53 am 04:53 Clear 60 15.6 44 6.7 56 56 NNW 7 11 29.76 1008 10 16 0.00 0.00
5:53 am 05:53 Sunny 62 16.7 46 7.8 56 56 NNW 5 7 29.78 1008 10 16 0.00 0.00
6:53 am 06:53 Sunny 65 18.3 46 7.8 51 51 NW 8 13 29.79 1009 10 16 0.00 0.00
7:53 am 07:53 Sunny 68 20 46 7.8 45 45 NW 6 9 29.79 1009 10 16 0.00 0.00
8:53 am 08:53 Sunny 79 26.1 47 8.3 32 32 WNW 9 15 29.78 1009 10 16 0.00 0.00
9:53 am 09:53 Sunny 83 28.3 48 8.9 30 30 WNW 12 19 29.77 1008 10 16 0.00 0.00
10:53 am 10:53 Sunny 87 30.6 47 8.3 25 25 VRB 7 11 29.76 1008 10 16 0.00 0.00
11:53 am 11:53 Sunny 89 31.7 45 7.2 22 22 NW 10 17 29.76 1008 10 16 0.00 0.00
12:53 pm 12:53 Sunny 91 32.8 44 6.7 20 20 WNW 8 13 29.75 1007 10 16 0.00 0.00
1:53 pm 13:53 Sunny 96 35.6 42 5.6 15 15 WNW 10 17 29.72 1007 10 16 0.00 0.00
2:53 pm 14:53 Mostly Sunny 91 32.8 44 6.7 20 20 WNW 26 43 29.73 1007 10 16 0.00 0.00
3:53 pm 15:53 Sunny 90 32.2 40 4.4 17 17 WNW 17 28 29.75 1007 10 16 0.00 0.00
4:53 pm 16:53 Mostly Cloudy 87 30.6 41 5 20 20 WNW 21 33 29.78 1008 10 16 0.00 0.00
5:53 pm 17:53 Sunny 84 28.9 42 5.6 23 23 W 14 22 29.79 1009 10 16 0.00 0.00
6:53 pm 18:53 Sunny 84 28.9 42 5.6 23 23 WSW 7 11 29.78 1008 10 16 0.00 0.00
7:53 pm 19:53 Sunny 83 28.3 43 6.1 24 24 W 12 19 29.76 1008 10 16 0.00 0.00
8:53 pm 20:53 Clear 80 26.7 41 5 25 25 WSW 9 15 29.75 1008 10 16 0.00 0.00
9:53 pm 21:53 Clear 72 22.2 46 7.8 40 40 NNE 7 11 29.79 1009 10 16 0.00 0.00
10:53 pm 22:53 Clear 70 21.1 56 13.3 61 61 NNE 21 33 29.84 1010 10 16 0.00 0.00
11:53 pm 23:53 Clear 68 20 56 13.3 65 65 NE 13 20 29.86 1011 10 16 0.00 0.00

Powered by AerisWeather